TimeEST,TemperatureF,Dew PointF,Humidity,Sea Level PressureIn,VisibilityMPH,Wind Direction,Wind SpeedMPH,Gust SpeedMPH,PrecipitationIn,Events,Conditions,WindDirDegrees,DateUTC
12:56 AM,51.1,46.9,86,29.60,10.0,NW,12.7,-,0.00,,Overcast,310,2012-12-11 05:56:00
1:56 AM,46.0,42.1,86,29.64,10.0,NNW,15.0,-,0.00,,Overcast,330,2012-12-11 06:56:00
2:56 AM,45.0,39.9,82,29.70,10.0,NNW,13.8,-,0.00,Rain,Light Rain,340,2012-12-11 07:56:00
3:56 AM,44.1,39.9,85,29.70,10.0,North,5.8,-,0.01,,Overcast,350,2012-12-11 08:56:00
4:56 AM,43.0,39.9,89,29.71,10.0,NNW,4.6,-,N/A,,Overcast,340,2012-12-11 09:56:00
5:56 AM,43.0,39.0,86,29.75,10.0,NW,3.5,-,0.00,Rain,Light Rain,310,2012-12-11 10:56:00
6:56 AM,42.1,37.9,85,29.81,10.0,WNW,12.7,-,0.01,Rain,Light Rain,290,2012-12-11 11:56:00
7:56 AM,42.1,37.0,82,29.84,10.0,NNW,5.8,-,0.00,,Mostly Cloudy,330,2012-12-11 12:56:00
8:56 AM,43.0,36.0,76,29.86,10.0,NNW,5.8,-,N/A,,Mostly Cloudy,330,2012-12-11 13:56:00
9:56 AM,45.0,34.0,65,29.87,10.0,NNW,12.7,18.4,N/A,,Scattered Clouds,330,2012-12-11 14:56:00
10:56 AM,44.1,30.9,60,29.90,10.0,WNW,10.4,-,N/A,,Scattered Clouds,300,2012-12-11 15:56:00
11:56 AM,46.4,30.2,53,29.91,10.0,NW,10.4,-,N/A,,Scattered Clouds,310,2012-12-11 16:56:00
12:56 PM,46.9,30.0,52,29.92,10.0,WNW,12.7,-,N/A,,Partly Cloudy,300,2012-12-11 17:56:00
1:56 PM,46.9,28.9,50,29.94,10.0,WNW,11.5,-,N/A,,Scattered Clouds,300,2012-12-11 18:56:00
2:56 PM,44.1,28.0,53,29.97,10.0,WNW,12.7,-,N/A,,Mostly Cloudy,300,2012-12-11 19:56:00
3:56 PM,43.0,27.0,53,30.01,10.0,NNW,12.7,-,N/A,,Mostly Cloudy,330,2012-12-11 20:56:00
4:56 PM,41.0,27.0,57,30.03,10.0,NNW,6.9,-,N/A,,Scattered Clouds,340,2012-12-11 21:56:00
5:56 PM,41.0,27.0,57,30.07,10.0,NW,5.8,-,N/A,,Mostly Cloudy,320,2012-12-11 22:56:00
6:56 PM,39.9,27.0,60,30.10,10.0,NW,6.9,-,N/A,,Mostly Cloudy,310,2012-12-11 23:56:00
7:56 PM,41.0,26.1,55,30.12,10.0,NNW,8.1,-,N/A,,Mostly Cloudy,330,2012-12-12 00:56:00
8:56 PM,39.9,26.1,58,30.14,10.0,NNW,8.1,-,N/A,,Mostly Cloudy,330,2012-12-12 01:56:00
9:56 PM,39.9,25.0,55,30.16,10.0,NW,8.1,-,N/A,,Mostly Cloudy,310,2012-12-12 02:56:00
10:56 PM,39.0,24.1,55,30.17,10.0,NW,9.2,-,N/A,,Overcast,320,2012-12-12 03:56:00
11:56 PM,37.0,25.0,62,30.19,10.0,WNW,8.1,-,N/A,,Scattered Clouds,300,2012-12-12 04:56:00